Regional Weather Roundup
Issued by NWS

Home | Current Version | Previous Version | Graphics & Text | Print | Product List | Glossary On
Versions: 1 2 3 4 5 6 7 8 9 10 11 12 13 14 15 16 17 18 19 20 21 22 23 24 25 26 27 28 29 30 31 32 33 34 35 36 37 38 39 40 41 42 43 44 45 46 47 48 49 50
597
ASUS44 KMEG 270710
RWRTN
TENNESSEE HOURLY STATE WEATHER ROUNDUP
NATIONAL WEATHER SERVICE MEMPHIS TN
200 AM CDT WED JUL 27 2016

TNZ002-004-019-021-049-052-054-088>092-270800-
WEST TENNESSEE

CITY           SKY/WX    TMP DP  RH WIND       PRES   REMARKS
MEMPHIS INTL   CLEAR     82  71  69 CALM      29.93F
NWS MEMPHIS      N/A     77 N/A N/A MISG        N/A
JACKSON        PTCLDY    74  73  97 CALM      29.95F
DYERSBURG      CLEAR     75  72  88 MISG      29.95F
UNION CITY     PTCLDY    73  73 100 CALM      29.95F
PARIS          CLOUDY    73  72  94 CALM      29.98F
LEXINGTON      CLEAR     73  72  94 CALM      29.96S
$$

TNZ008-025-027-028-033-062-065-066-270800-
NORTH MIDDLE TENNESSEE

CITY           SKY/WX    TMP DP  RH WIND       PRES   REMARKS
NASHVILLE      CLOUDY    76  73  91 CALM      29.98F
CLARKSVILLE    PTCLDY    76  73  91 W5        29.98S
SMYRNA         PTCLDY    78  73  84 CALM      29.98F
COOKEVILLE     PTCLDY    75  75 100 CALM      30.01S
CROSSVILLE     PTCLDY    72  70  93 CALM      30.07S
$$

TNZ061-075-076-078-094-096-097-270800-
SOUTH MIDDLE TENNESSEE

CITY           SKY/WX    TMP DP  RH WIND       PRES   REMARKS
FAYETTEVILLE   CLEAR     77  72  83 CALM      30.01F
TULLAHOMA      CLEAR     73  72  94 CALM      30.03F
WINCHESTER     CLEAR     73  72  94 CALM      30.02F
MCMINNVILLE    MOCLDY    75  75 100 CALM      30.01F
COLUMBIA       CLEAR    N/A N/A N/A CALM      29.97F
SHELBYVILLE    CLEAR     75  75 100 SE3       30.01F
$$

TNZ017-018-042-046-047-270800-
NORTHEAST TENNESSEE

CITY           SKY/WX    TMP DP  RH WIND       PRES   REMARKS
TRI CITIES     PTCLDY    72  70  93 CALM      30.05F
ELIZABETHTON   CLOUDY    73  70  88 NE5       30.05F
$$

TNZ012-013-036-069-073-074-270800-
CENTRAL EAST TENNESSEE

CITY           SKY/WX    TMP DP  RH WIND       PRES   REMARKS
KNOXVILLE      PTCLDY    77  73  87 CALM      30.00F
OAK RIDGE      PTCLDY    80  72  76 S6        30.02S
GATLINBURG     CLEAR     73  70  88 CALM      30.02S
MORRISTOWN     PTCLDY    79  72  78 W5        30.03S
$$

TNZ083-085-099-270800-
SOUTHEAST TENNESSEE

CITY           SKY/WX    TMP DP  RH WIND       PRES   REMARKS
CHATTANOOGA    CLEAR     78  72  81 CALM      30.02S
$$

SKY/WX REPORTED AS FAIR MEANS FEW OR NO CLOUDS BELOW
12 THOUSAND FEET.





USA.gov is the U.S. government's official web portal to all federal, state and local government web resources and services.